Location: Franzen
(48.6167°N, 15.3833°E)
Time: 07:37:40
(UTC+00:00)

Cosmos 1709 Rocket - Pass Details

Date: 30 July 2021
Orbit: 947 x 1002 km, 82.9° (Epoch: 18 September)

Event Time Altitude Azimuth Distance (km) Brightness Sun altitude
Exits shadow 23:59:53 39° 217° (SW) 1,458 4.4 -21.8°
Maximum altitude 00:02:15 64° 282° (WNW) 1,104 4.2 -21.7°
Drops below altitude 10° 00:08:37 10° 4° (N) 2,785 7.5 -21.4°
Sets 00:11:12 0° 8° (N) 3,741 8.5 -21.3°
